Theta_e
355 362 369 369 367 366 365 365 365 365 365 367 367 368 367 366 366 366 364 363 362 361 359 360 360 360 359 360 360 361 359 358 359 357 358 359 357 356 357 354 357 351 356
358 363 370 370 369 367 365 365 365 365 365 366 367 367 367 366 365 364 363 363 362 361 360 361 361 360 360 360 358 358 359 359 358 357 359 358 359 358 357 356 357 353 356
360 364 366 370 370 368 366 365 365 365 364 364 365 365 365 365 364 363 362 362 362 361 362 361 362 360 360 360 359 359 359 359 359 358 358 351 352 357 356 356 357 355 355
361 363 364 369 370 368 366 366 366 365 364 363 364 363 364 364 363 363 362 362 362 360 361 361 362 361 360 360 360 359 360 359 359 359 352 352 353 357 354 353 357 353 354
360 363 365 372 371 367 366 367 366 366 365 364 364 363 363 362 362 362 361 362 362 362 361 362 361 360 361 361 360 359 359 358 357 354 347 349 349 354 354 353 357 356 357
360 363 369 371 369 367 366 366 366 365 364 364 364 363 362 362 361 361 361 361 360 359 360 361 361 359 361 360 360 358 358 358 357 350 348 353 350 356 353 354 356 357 355
360 364 366 370 370 369 367 366 365 365 364 364 364 364 363 362 362 361 360 360 359 359 359 360 360 360 359 360 360 358 358 358 350 349 349 350 346 359 355 356 356 356 354
360 362 364 369 370 368 366 365 365 365 365 364 365 364 362 363 364 361 361 358 358 359 359 359 359 360 358 360 360 359 357 357 354 350 349 348 351 359 357 358 355 354 354
360 361 362 363 364 367 366 365 365 365 365 364 363 362 363 363 362 361 360 360 358 358 359 357 358 359 358 360 361 358 358 358 349 348 349 348 357 359 357 358 357 356 353
356 357 356 358 358 359 361 367 366 366 364 363 363 363 363 362 361 361 363 364 360 359 359 354 357 357 357 359 360 358 357 357 349 350 349 349 359 359 357 356 357 354 355
353 352 353 353 354 355 357 361 365 365 364 362 362 364 362 355 356 358 360 361 361 359 359 359 358 357 359 357 356 357 357 350 348 348 349 355 358 359 358 357 357 355 356
346 349 351 351 352 353 359 355 356 355 355 355 356 354 354 353 353 355 360 361 360 361 359 359 360 359 357 351 347 353 348 350 347 346 348 356 358 358 358 359 356 355 357
345 348 350 351 351 352 354 352 353 352 352 352 352 351 350 352 351 352 353 354 352 358 353 356 354 354 351 350 348 347 343 343 346 347 348 357 358 359 358 358 357 356 355
344 346 349 349 350 350 352 351 351 351 351 350 351 351 350 349 349 347 349 350 350 351 350 349 350 351 349 350 349 348 344 342 344 346 346 356 359 359 359 359 358 357 357
343 346 348 349 349 351 352 352 352 351 352 351 352 352 349 347 346 346 347 349 350 348 349 347 348 348 348 349 346 348 348 346 344 346 345 353 358 358 360 360 358 358 357
346 347 349 350 349 348 347 347 346 347 348 349 350 350 350 349 346 345 345 344 345 346 347 346 344 346 346 346 347 345 344 345 346 347 347 347 357 357 359 361 361 359 358
347 349 347 343 344 342 340 339 338 340 341 343 347 350 350 348 346 345 343 340 341 342 345 344 342 342 342 342 342 344 346 345 345 345 347 347 350 357 358 359 359 361 362
346 343 344 348 347 346 342 340 340 339 337 339 341 345 347 346 347 345 345 343 342 340 338 340 339 337 337 336 335 337 342 346 347 347 346 346 347 350 355 359 357 359 361
345 342 347 341 345 344 341 338 336 337 336 340 343 346 348 349 349 345 345 346 344 343 342 339 336 335 333 332 334 336 339 342 345 348 346 347 346 347 348 354 358 357 359
342 344 345 339 343 342 336 335 336 336 336 340 342 347 348 349 350 345 343 343 343 342 340 338 336 335 332 331 335 336 337 339 342 345 346 347 347 347 348 348 348 352 356
342 341 339 337 336 332 330 332 333 332 335 337 341 345 346 347 347 343 342 342 341 339 339 338 336 337 337 337 334 331 332 334 335 339 342 343 345 347 347 347 347 345 347
341 338 334 334 332 332 331 334 335 335 336 337 339 342 343 347 345 344 341 340 340 339 338 337 336 334 336 338 332 328 325 329 333 337 340 342 343 345 347 347 346 345 346
341 338 334 332 332 332 334 334 335 335 336 336 338 342 342 343 343 341 340 339 338 338 337 337 335 334 331 333 334 328 323 322 327 334 335 338 340 341 342 346 347 347 345
340 341 336 332 332 333 333 331 331 330 330 335 337 337 339 342 341 341 340 340 339 338 337 337 338 335 332 329 330 335 334 331 326 323 328 333 338 340 340 342 344 345 344
342 339 336 331 331 334 333 332 331 330 332 336 336 335 336 336 337 338 338 338 338 338 338 338 337 336 333 330 328 329 333 330 333 327 324 325 332 334 337 337 339 338 339
339 336 333 330 329 334 335 336 334 333 337 334 333 333 333 333 333 336 339 338 338 338 338 338 338 336 334 333 331 329 328 328 327 328 326 325 324 332 338 340 338 336 339
Wind_Speed
5 8 12 14 15 14 15 15 15 15 15 15 15 16 16 16 15 15 14 13 13 12 11 11 10 10 10 10 11 13 14 14 15 16 16 17 17 16 15 16 15 10 15
10 10 14 15 15 15 14 14 14 14 15 15 15 15 15 15 15 14 13 12 12 11 10 10 11 10 11 11 11 12 14 15 14 16 16 16 17 17 16 16 14 12 15
11 9 11 15 15 15 15 15 14 14 15 14 14 14 13 13 14 12 11 10 9 9 9 9 11 9 10 11 11 12 13 16 15 15 13 5 6 16 15 14 14 15 14
10 7 9 16 15 15 15 15 14 14 14 13 12 12 12 12 12 11 10 9 8 7 7 7 9 10 10 10 11 12 13 14 15 15 5 5 8 16 15 14 15 14 14
8 7 11 16 16 16 15 14 13 14 14 13 12 11 11 11 10 9 8 7 7 6 6 7 8 9 11 9 11 10 11 12 13 9 3 5 5 12 15 14 13 14 13
9 8 13 16 17 16 15 15 14 13 13 12 12 12 11 9 8 8 7 6 5 4 4 7 7 7 10 10 10 9 10 12 12 5 2 5 4 13 15 16 13 14 12
10 8 10 15 15 14 14 15 14 13 13 12 12 12 11 10 8 7 6 5 5 4 3 4 5 7 10 10 9 9 8 12 5 4 4 3 4 13 15 14 14 13 12
10 9 9 14 14 15 15 14 14 13 12 11 11 11 10 8 9 7 5 3 3 4 4 3 5 6 10 12 10 8 9 10 5 5 6 4 7 12 14 14 14 13 12
7 7 7 8 12 15 14 14 14 13 12 11 10 10 9 9 8 8 7 5 4 4 4 3 5 5 7 11 11 11 9 7 4 3 7 4 10 13 14 15 14 14 13
6 6 5 5 6 6 7 13 13 13 11 10 10 9 9 8 8 8 7 6 7 6 6 5 4 4 4 6 8 7 7 7 2 4 3 5 13 15 14 14 15 13 13
4 4 4 5 6 6 5 7 10 12 11 11 10 10 8 2 3 6 7 7 8 7 7 7 6 4 6 7 6 5 6 0 1 1 2 10 14 15 15 15 14 14 14
7 6 5 5 5 5 5 5 5 5 4 4 4 4 3 4 4 5 7 10 9 8 7 7 7 7 5 2 2 6 1 2 2 3 3 11 13 15 15 14 14 14 14
11 8 9 8 6 6 5 3 2 2 2 3 5 5 4 3 3 3 2 3 3 6 3 4 3 3 4 4 3 2 2 3 2 2 3 11 15 16 15 15 15 14 14
13 12 9 7 7 6 4 3 3 3 3 3 4 5 4 3 4 4 3 3 4 3 4 4 3 4 4 4 5 5 5 4 3 2 4 8 13 14 15 16 16 15 15
10 10 8 6 4 4 6 5 4 4 3 5 4 5 4 4 4 3 4 3 4 3 4 4 4 4 4 4 4 5 5 6 5 3 3 10 12 13 15 16 17 16 16
11 10 7 8 5 4 4 6 4 3 3 3 3 4 6 5 4 4 4 4 4 4 3 4 4 4 4 4 5 5 5 5 4 5 3 5 15 14 16 18 17 17 17
12 8 10 10 9 10 6 6 6 4 1 2 2 5 5 5 5 5 4 4 4 3 3 3 3 3 3 3 5 4 4 6 6 6 5 4 7 16 17 17 17 17 18
10 10 10 9 8 5 6 4 2 3 4 4 2 3 5 6 6 5 4 4 2 2 2 2 3 3 3 3 4 3 4 4 6 6 5 5 5 4 10 17 18 18 18
14 16 22 20 16 9 2 3 1 3 3 3 2 1 4 5 5 5 4 4 5 5 4 3 3 3 3 4 4 4 4 4 5 5 7 7 7 6 5 10 16 18 19
13 16 12 12 12 0 4 1 2 3 2 1 2 1 3 1 4 4 3 1 3 3 3 3 5 4 4 4 3 4 4 4 4 4 6 5 6 6 6 6 4 8 19
11 11 7 7 5 4 2 1 1 5 1 1 2 3 5 2 1 3 2 2 3 3 4 4 3 5 4 4 2 2 3 5 6 5 5 5 5 5 5 5 4 4 4
10 9 6 6 4 4 2 1 2 2 1 3 2 2 4 2 1 2 2 1 1 2 4 4 5 2 4 5 3 2 2 3 2 5 4 5 7 3 4 5 5 5 5
9 7 7 7 6 3 2 3 3 2 1 3 4 4 5 4 5 4 2 1 2 3 4 4 4 6 4 3 4 4 1 4 1 1 3 3 4 3 3 4 4 4 2
8 6 6 6 4 3 3 2 1 2 2 2 3 3 4 6 6 5 4 3 4 3 4 4 4 4 4 4 1 3 0 1 2 3 2 2 3 4 3 1 2 3 5
9 8 5 5 5 3 3 2 2 5 2 2 3 3 5 4 4 4 5 4 4 3 4 4 4 5 4 3 3 3 3 1 0 2 0 3 3 4 2 1 3 3 4
6 5 6 7 5 4 2 3 2 4 4 3 3 3 3 3 4 5 5 4 4 4 3 3 3 5 4 4 3 3 4 4 4 3 2 0 1 3 4 4 3 2 2
Wind_Direction
157 143 152 150 141 136 131 129 124 116 110 106 108 113 117 123 129 132 133 133 129 129 131 128 131 127 129 124 125 124 123 125 127 125 130 125 125 122 121 124 120 126 120
137 150 159 150 148 139 131 130 126 122 118 115 115 116 122 126 131 136 138 137 137 140 143 140 135 134 133 129 129 132 135 135 131 131 129 135 131 125 125 126 125 125 123
137 146 151 149 149 142 137 133 131 127 125 120 120 123 127 130 133 136 137 138 142 152 151 147 143 142 137 138 139 136 137 139 139 134 135 123 129 129 128 130 129 124 122
133 136 141 147 149 144 140 137 135 132 129 126 123 124 127 129 131 137 139 134 136 136 155 163 154 150 149 146 145 140 142 144 140 140 127 123 138 135 136 139 135 133 134
126 135 146 143 145 146 143 141 138 135 136 133 130 128 133 135 133 133 136 136 131 134 141 162 168 158 151 156 150 152 154 150 140 130 123 126 127 141 138 143 132 137 136
135 140 145 146 147 149 146 143 142 139 141 141 138 139 140 142 141 141 143 138 132 134 145 166 162 166 154 165 158 161 162 159 148 133 105 148 140 147 147 146 145 138 137
139 139 144 148 149 148 149 148 149 151 152 153 151 149 152 155 155 153 152 154 152 153 178 186 175 168 154 167 166 172 162 164 136 158 176 174 175 158 156 157 147 144 147
141 138 148 148 150 153 155 155 154 158 161 161 158 155 159 167 167 160 165 169 175 178 191 210 199 177 163 168 175 187 183 182 174 188 173 170 191 172 166 165 154 156 157
140 137 140 146 156 156 159 161 163 164 170 170 167 163 169 166 168 170 168 170 188 199 200 226 223 180 183 174 182 190 194 185 148 157 165 161 188 185 176 166 165 163 165
137 135 139 142 137 143 160 165 166 167 172 179 176 176 180 186 184 183 178 189 195 204 209 213 237 218 204 183 189 195 197 187 158 145 158 173 180 186 179 179 174 174 175
129 133 142 144 140 149 152 169 171 173 177 184 188 190 191 185 224 212 187 210 208 210 221 222 221 241 207 190 191 209 219 150 216 173 185 189 182 190 184 185 183 185 185
165 173 169 159 157 155 163 163 171 185 174 179 187 200 176 193 220 224 226 213 219 215 219 230 228 212 219 190 212 213 154 223 233 193 175 205 188 196 191 190 193 193 194
174 180 184 175 173 171 168 160 172 188 197 191 197 201 203 210 251 253 241 247 203 233 198 212 222 215 201 176 209 216 194 218 245 237 206 215 198 203 198 195 199 201 201
185 190 180 176 176 175 154 160 175 184 196 212 216 211 195 206 215 250 258 229 214 191 202 201 202 208 218 213 198 218 208 223 214 213 225 228 205 207 206 203 205 205 209
189 187 175 160 163 179 178 170 174 205 214 216 210 222 194 206 224 227 240 219 215 191 191 194 198 212 213 221 216 218 212 218 221 203 210 232 219 215 217 210 211 211 213
190 184 143 138 128 144 195 149 136 161 209 240 257 245 222 212 202 211 232 227 237 201 200 196 195 208 211 207 223 213 232 232 229 215 213 226 224 222 221 219 213 216 216
187 146 157 132 149 190 158 138 134 146 171 214 241 259 238 230 223 196 206 228 228 205 205 200 200 200 208 218 237 219 210 226 232 214 216 207 235 223 221 224 222 216 217
128 105 74 33 276 192 180 161 124 171 161 170 218 267 248 231 213 200 198 213 182 285 264 214 191 194 218 219 247 237 256 234 235 232 206 216 213 226 234 225 220 220 223
127 130 127 186 204 235 182 76 111 178 261 170 151 336 261 245 225 204 196 218 169 204 200 202 201 182 203 221 236 256 241 243 248 243 223 213 218 219 220 239 226 223 223
138 148 149 187 209 206 75 2 323 276 268 264 105 29 13 236 216 195 206 228 169 196 225 188 212 203 189 202 218 241 239 235 237 220 250 232 222 212 215 217 233 232 229
143 138 162 178 193 105 126 168 7 245 140 301 81 353 23 24 135 159 176 180 161 196 232 221 183 204 213 180 134 272 260 233 232 221 224 235 232 215 212 221 221 229 244
148 132 164 195 170 213 192 108 65 5 135 191 239 2 8 18 165 101 79 350 215 218 232 209 192 201 214 172 165 106 304 333 269 233 218 217 230 198 212 225 214 219 236
151 151 182 199 176 182 80 37 52 292 314 13 9 30 21 56 72 81 84 24 263 227 237 221 192 194 217 190 203 142 132 223 46 326 245 231 230 220 229 233 218 216 154
173 189 206 182 158 106 80 52 113 128 61 42 11 30 51 45 35 23 6 346 304 259 245 231 199 203 164 184 165 213 206 166 185 310 325 324 252 228 256 253 94 132 127
175 182 165 154 131 107 78 76 24 45 23 352 60 70 48 28 20 6 354 328 306 303 270 250 227 206 181 162 172 136 182 199 259 133 269 324 44 28 14 207 139 127 129
162 161 142 152 161 143 74 54 24 19 23 58 57 49 16 12 2 345 337 346 335 333 302 271 240 220 194 185 171 177 164 168 192 165 180 140 55 26 41 62 80 100 137